Winfield, KS

12:17 AM CST on December 06, 2019 (GMT -0600)
Strother

Weather History for KWLD - November, 2019

Change the Weather History Date:

Saturday, November 16, 2019

  Actual Average Record
Temperature  
Mean Temperature 49 °F -  
Max Temperature 62 °F 55 °F 84 °F (2016)
Min Temperature 36 °F 36 °F 9 °F (2014)
Degree Days  
Heating Degree Days 16    
Moisture  
Dew Point 30 °F    
Average Humidity 50    
Maximum Humidity 73    
Minimum Humidity 32    
Precipitation  
Precipitation 0.00 in - - ()
Sea Level Pressure  
Sea Level Pressure 30.12 in    
Wind  
Wind Speed 9 mph ()    
Max Wind Speed 17 mph    
Max Gust Speed 32 mph    
Visibility 10.0 miles    
Events Snow    
Averages and records for this station are not official NWS values.
T = Trace of Precipitation, MM = Missing Value Source: Averaged Metar Reports

Daily Weather History Graph

Daily Weather History Graph

Search for Another Location

Airport or City:

Astronomy

Nov. 16, 2019 Rise Set
Actual Time 7:07 AM CST 5:17 PM CST
Civil Twilight 6:40 AM CST 5:45 PM CST
Nautical Twilight 6:08 AM CST 6:16 PM CST
Astronomical Twilight 5:37 AM CST 6:47 PM CST
Moon 8:53 PM CST (11/16) 11:00 AM CST (11/16)
Length of Visible Light 11h 05m
Length of Day
10h 09m
Waning Gibbous, 82% of the Moon is Illuminated
Nov 16
Waning Gibbous
Nov 19
Last Quarter
Nov 26
New
Dec 4
First Quarter
Dec 11
Full

Hourly Weather History & Observations

Time (CST) Temp. Windchill Dew Point Humidity Pressure Visibility Wind Dir Wind Speed Gust Speed Precip Events Conditions
12:54 AM 39.0 °F 34.0 °F 28.0 °F 65% 30.24 in 10.0 mi SE 6.9 mph - N/A   Clear
1:54 AM 37.9 °F 32.7 °F 28.0 °F 68% 30.23 in 10.0 mi SE 6.9 mph - N/A   Clear
2:54 AM 37.9 °F 32.1 °F 28.0 °F 68% 30.22 in 10.0 mi SE 8.1 mph - 0.00 in   Clear
3:54 AM 37.9 °F 32.1 °F 28.0 °F 68% 30.20 in 10.0 mi SE 8.1 mph - N/A   Clear
4:54 AM 37.0 °F 31.6 °F 27.0 °F 67% 30.21 in 10.0 mi SE 6.9 mph - 0.00 in Snow Light Snow
5:54 AM 36.0 °F 29.6 °F 28.0 °F 73% 30.20 in 10.0 mi SSE 8.1 mph - 0.00 in   Clear
6:54 AM 37.0 °F 32.4 °F 27.0 °F 67% 30.22 in 10.0 mi SE 5.8 mph - N/A   Clear
7:54 AM 39.0 °F 34.0 °F 28.0 °F 65% 30.22 in 10.0 mi SE 6.9 mph - N/A   Clear
8:54 AM 45.0 °F 39.7 °F 30.0 °F 56% 30.21 in 10.0 mi SSE 10.4 mph - N/A   Clear
9:54 AM 52.0 °F - 30.9 °F 45% 30.19 in 10.0 mi South 17.3 mph 24.2 mph N/A   Clear
10:54 AM 57.0 °F - 32.0 °F 39% 30.16 in 10.0 mi South 17.3 mph - N/A   Clear
11:54 AM 60.1 °F - 32.0 °F 35% 30.12 in 10.0 mi South 17.3 mph 28.8 mph N/A   Clear
12:54 PM 62.1 °F - 32.0 °F 32% 30.07 in 10.0 mi South 17.3 mph 32.2 mph N/A   Clear
1:54 PM 62.1 °F - 32.0 °F 32% 30.04 in 10.0 mi South 17.3 mph 29.9 mph N/A   Clear
2:54 PM 60.1 °F - 32.0 °F 35% 30.01 in 10.0 mi South 17.3 mph - N/A   Clear
3:54 PM 60.1 °F - 32.0 °F 35% 30.00 in 10.0 mi SSE 15.0 mph - N/A   Clear
4:54 PM 57.9 °F - 32.0 °F 37% 30.00 in 10.0 mi SE 10.4 mph - N/A   Clear
5:54 PM 55.0 °F - 32.0 °F 42% 30.00 in 10.0 mi SSE 12.7 mph - N/A   Clear
6:54 PM 54.0 °F - 30.9 °F 41% 30.02 in 10.0 mi SSE 9.2 mph - N/A   Clear
7:54 PM 53.1 °F - 30.9 °F 43% 30.04 in 10.0 mi SSE 11.5 mph - N/A   Clear
8:54 PM 52.0 °F - 30.9 °F 45% 30.04 in 10.0 mi SSE 12.7 mph - N/A   Clear
9:54 PM 50.0 °F - 30.9 °F 48% 30.04 in 10.0 mi South 12.7 mph - N/A   Clear
10:54 PM 50.0 °F - 32.0 °F 50% 30.04 in 10.0 mi South 12.7 mph - N/A   Clear
11:54 PM 48.0 °F - 32.0 °F 54% 30.04 in 10.0 mi South 8.1 mph - N/A   Clear